Погода в Кызылорде

Погода в Кызылорде : погода сейчас, прогноз погоды и архив. Всё, что Вы хотите узнать о погоде в Кызылорде!

Хотите узнать прогноз погоды в Кызылорде? Тогда Вам сюда: Погода в Кызылорде

Поиск расширенной информации на нашем сайте:

Другие новости

Новости СМИ2

Главная страница сайта

Новости сайта

02.10.2013

Напоминаем, что на нашем новом сайте вы можете получить высокодетализированные прогнозы погоды по пунктам России, СНГ и мира (включающие важные для авиации метеовеличины, такие как направление и скорость ветра, видимость, явления погоды, количество и форма облачности, нижняя и верхняя граница облачности), а также ознакомиться с разнообразными материалами по авиационной метеорологии и подборкой полезных ссылок на эту тему.

Сайт Метеоцентр.Азия посвящён разработке технологий оптимизации авиаметеорологического обслуживания, включая проектирование и перспективное создание нескольких автоматизированных авиаметеорологических систем:
- система выпуска высокодетальных прогностических карт явлений погоды для нижнего воздушного пространства по России и ближнему зарубежью;
- система верификации прогнозов TAF (выпускаемых синоптиками официальных АМСГ РФ и ближнего зарубежья) и AUTOTAF (выпускаемых сайтом Метеоцентр.Азия) - выявление ошибок, онлайн-сопоставление с фактической погодой METAR, автоматическое внесение коррективов в прогнозы при резком отклонении фактической погоды от прогноза, подсчёт оправдываемости прогнозов по элементам и в целом;
- система обработки, анализа и отображения авиаметеорологической информации для применения провайдерами метеорологической информации.

Рекомендуем: Цветы в шляпных коробках цветы в шляпных коробках.

Погода в Кызылорде - сегодня

Время (UTC), дата Ветер
(°,м/с) 
Видим.   Явления Облачность Т
(°С)
Тd
(°С)
f(%) Тe
(°С)
Pmin
(гПа)
dP
(гПа)
Po
(мм)
O2
(г/м3)
Тmin Tmax R s Состояние
почвы
00 24.05.17 тихо ()   20000 м    ясно 
+17.8 +12.2 70 +22  1013.9  749  281           
03 24.05.17 100 (В) 20000 м    5/0 средняя, верхняя 
[Ac cast|Ci]
+24.2 +11.4 45 +27  1014.1  0.5  749  275           
06 24.05.17 080 (В) 20000 м    8/6 1000 м кучево-дожд., верхняя 
[Cb calv|Ci]
+28.9 +9.4 30 +29  1013.8  -0.1  749  271  +17.2         
09 24.05.17 110 (В) 20000 м    9/0 верхняя 
[Ci]
+31.6 +8.5 24 +32  1012.8  -0.9  749  269           
12 24.05.17 140 (ЮВ) 20000 м    10/3 1000 м кучево-дожд., верхняя 
[Cb calv|Ci]
+31.5 +9.2 25 +32  1011.8  -1  748  269           
15 24.05.17 110 (В) 20000 м    6/3 1000 м кучево-дожд., верхняя 
[Cb calv|Ci fib]
+28.4 +9.4 30 +29  1011.5  -0.4  748  271    +32.8       
18 24.05.17 тихо ()   н/о  дым  5/0 средняя, верхняя 
[Ac cast|Ci fib]
+23.4 +7.8 37 +23  1012.2  0.4  748  276    +32.8       
21 24.05.17 020 (С) н/о    3/0 средняя 
[Ac cast]
+21.4 +9.5 47 +22  1012.7  0.4  748  278           
00 25.05.17 360 (С) 20000 м    5/3 1000 м кучево-дожд., средняя 
[Cb calv|Ac cuf]
+18.8 +9.3 54 +19  1013.7  0.9  749  281           
03 25.05.17 030 (СВ) 20000 м    9/3 1000 м кучево-дожд., средняя 
[Cb calv|Ac trans]
+22.4 +9.9 45 +23  1014.5  750  277           
06 25.05.17 050 (СВ) 20000 м    5/0 средняя, верхняя 
[Ac lent|Ci fib]
+26.6 +8.1 31 +27  1014.7  0.4  750  274  +18.3         
09 25.05.17 050 (СВ) 20000 м    4/0 средняя, верхняя 
[Ac lent|Ci]
+30.7 +8.6 25 +31  1013.4  -1.1  749  270           
12 25.05.17 010 (С) 20000 м    ясно 
+31.3 +8.2 24 +31  1012.9  -0.5  749  269           
15 25.05.17 360 (С) 20000 м    4/0 средняя 
[Ac lent]
+28.4 +11.4 35 +31  1013.5  0.5  749  271    +32.5       
18 25.05.17 010 (С) н/о    ясно 
+24.5 +10.5 41 +26  1014.3  0.6  750  275    +32.5       
21 25.05.17 030 (СВ) н/о    ясно 
+21.8 +7.8 41 +22  1014.7  0.2  750  278           
00 26.05.17 050 (СВ) 20000 м    10/0 верхняя 
[Cc]
+18.1 +5.6 44 +19  1014.9  0.1  750  282           
03 26.05.17 070 (В) 20000 м    10/0 средняя, верхняя 
[Ac cast|Ci]
+20.5 +5.6 38 +21  1016.5  1.7  751  281           
06 26.05.17 060 (СВ) 20000 м    8/5 1000 м кучево-дожд., средняя 
[Cb calv|Ac cast]
+28.2 +8.5 29 +28  1014.9  -1.2  750  273  +17.7         
09 26.05.17 070 (В) 20000 м    10/10 600 м кучево-дожд. 
[Cb cap]
+29.6 +8.6 27 +30  1014.2  -0.7  750  271           
12 26.05.17 080 (В) 20000 м    8/4 1000 м кучево-дожд., средняя 
[Cb cap|Ac lent]
+31.6 +9.3 25 +32  1012.4  -1.7  748  269           
15 26.05.17 060 (СВ) 20000 м    8/4 1000 м кучево-дожд., средняя 
[Cb cap|Ac und]
+29.1 +9.4 29 +30  1011.3  -1.2  747  271    +32.2       
18 26.05.17 090 (В) н/о    ясно 
+24.9 +8.1 34 +25  1010.4  -1.1  747  274    +32.2       
21 26.05.17 110 (В) н/о    10/10 600 м кучево-дожд. 
[Cb cap]
+23 +7.8 38 +23  1008.9  -1.6  745  276           
00 27.05.17 200 (Ю) 20000 м    8/8 600 м кучево-дожд. 
[Cb cap]
+21.8 +9 44 +22  1008.8  -0.1  745  277           
Время (UTC), дата Ветер
(°,м/с) 
Видим.   Явления Облачность Т
(°С)
Тd
(°С)
f(%) Тe
(°С)
Pmin
(гПа)
dP
(гПа)
Po
(мм)
O2
(г/м3)
Тmin Tmax R s Состояние
почвы

Для получения пояснительной информации подведите курсор к названию столбца.

ПОГОДА в Кызылорде - архив

Всё, что Вы хотите узнать о погоде в Кызылорде - удобно и подробно!

Выберите нужную дату (начиная с 1 января 2015* года) и нажмите кнопку "Найти".
Будут отображены архивные сводки погоды по пункту Кызылорда, начиная с указанной даты.


Отображать данные в формате CSV (для использования в таблицах Excel)


Внимание! Наш архив погоды предназначен исключительно для личного некоммерческого использования в познавательных целях. Если Вам необходимы официальные справки о состоянии погоды (для производственных, юридических, коммерческих и т.п. целей), обращайтесь в органы Росгидромета.

*Примечание: данная дата относится к архиву по метеостанциям СССР (Россия, СНГ, Балтия).
Архив по метеостанциям Зарубежной Европы и Азии (кроме Китая) хранится 10 дней, по другим регионам земного шара (Китай, Африка, Америка, Австралия, Океания) - 1 день.

Кызылорда - район местоположения метеостанции


Название, широта, долгота, высота метеостанции:
Кызылорда (город) 44.8°ш. 65.5°д. 130 м над ур. моря [Казахстан]

Дополнительная информация

В oтличие oт бoльшинства пoгoдных сайтoв мы публикуем пoдрoбную метеoинфoрмацию в детальнoм прoфессиoнальнoм фoрмате.

Характеристики температуры и влажнoсти вoздуха измеряются на высoте 2 м в тени вдали oт зданий и деревьев.
Скoрoсть ветра измеряется на высoте 10 м (на урoвне рoста челoвека скoрoсть ветра ниже в 1.5-2 раза). Если метеoстанция нахoдится в гoрoде или в лесу, тo скoрoсть ветра занижена на 2-4 м/с пo сравнению с oткрытым местoм. Скoрoсть ветра над акватoриями крупных рек и oзёр, а также на вершинах хoлмoв на 2-5 м/с выше, чем в oбычных услoвиях.
Атмoсфернoе давление в разных тoчках местнoсти мoжет значительнo oтличаться oт давления на метеoстанции, в зависимoсти oт услoвий рельефа (при пoдъёме на 10 м давление пoнижается примернo на 1 мм рт.ст.).